Regional Weather Roundup
Issued by NWS

Home | Current Version | Previous Version | Graphics & Text | Print | Product List | Glossary On
Versions: 1 2 3 4 5 6 7 8 9 10 11 12 13 14 15 16 17 18 19 20 21 22 23 24 25 26 27 28 29 30 31 32 33 34 35 36 37 38 39 40 41 42 43 44 45 46 47 48 49 50
656
ASUS43 KLMK 230802
RWRKY
KENTUCKY REGIONAL WEATHER ROUNDUP
NATIONAL WEATHER SERVICE LOUISVILLE KY
400 AM EDT FRI JUN 23 2017

NOTE "FAIR" INDICATES FEW OR NO CLOUDS BELOW 12,000 FEET
WITH NO SIGNIFICANT WEATHER AND/OR OBSTRUCTIONS TO VISIBILITY.

KYZ001>023-026-027-061>063-070>075-230900-
WESTERN AND SOUTH CENTRAL KENTUCKY

CITY           SKY/WX    TMP DP  RH WIND       PRES   REMARKS
PADUCAH        CLOUDY    78  72  81 S9G17     29.73F
HENDERSON      CLOUDY    77  73  87 S7        29.77F
OWENSBORO      CLOUDY    76  32  20 S10       29.79S
HOPKINSVILLE   PTCLDY    76  72  86 S10       29.80F
BOWLING GREEN  CLOUDY    77  74  90 S13       29.82F
GLASGOW        NOT AVBL
$$

KYZ024-025-028>034-038-045-046-053-230900-
NORTH CENTRAL KENTUCKY

CITY           SKY/WX    TMP DP  RH WIND       PRES   REMARKS
LOUISVILLE/SDF LGT RAIN  77  73  87 S10       29.80F
LOUISVILLE/LOU CLOUDY    75  74  96 S6        29.81F
FORT KNOX      CLOUDY    74  74  99 S9        29.80F
$$

KYZ035>037-039>044-047>052-055>060-089>105-230900-
NORTHEAST KENTUCKY

CITY           SKY/WX    TMP DP  RH WIND       PRES   REMARKS
LEXINGTON      PTCLDY    73  70  90 S12       29.84F
COVINGTON      CLOUDY    73  72  96 S12G18    29.79F
FRANKFORT      CLOUDY    75  70  84 S12       29.81F
$$

KYZ054-064>069-076>088-106>120-230900-
SOUTHEAST KENTUCKY

CITY           SKY/WX    TMP DP  RH WIND       PRES   REMARKS
JACKSON        CLOUDY    71  68  90 CALM      29.91F
LONDON         CLOUDY    73  69  87 S6        29.91F
SOMERSET       PTCLDY    72  72 100 S6        29.90F
MIDDLESBORO    HVY RAIN  72  71  96 S8        29.95F
MONTICELLO     CLOUDY    76  71  85 VRB7      29.90F
$$





USA.gov is the U.S. government's official web portal to all federal, state and local government web resources and services.